Regional Weather Roundup
Issued by NWS Huntsville, AL

Home | Current Version | Previous Version | Text Only | Print | Product List | Glossary On
Versions: 1 2 3 4 5 6 7 8 9 10 11 12 13 14 15 16 17 18 19 20 21 22 23 24 25 26 27 28 29 30 31 32 33 34 35 36 37 38 39 40 41 42 43 44 45 46 47 48 49 50
000
ASUS44 KHUN 311010
RWRHUN

WEATHER ROUNDUP FOR THE TENNESSEE VALLEY
NATIONAL WEATHER SERVICE HUNTSVILLE AL
500 AM CDT FRI JUL 31 2015

ALZ001>004-311100-
NORTHWEST ALABAMA

CITY           SKY/WX    TMP DP  RH WIND       PRES   REMARKS
COURTLAND HCN    N/A     68 N/A N/A N3          N/A
BANKHEAD NF      N/A     66  61  85 CALM        N/A
RUSSELLVILLE     N/A     63 N/A N/A MISG        N/A
SHOALS AIRPORT CLEAR     71  61  70 VRB5      30.06R
SHOALS TVA RES   N/A     70 N/A N/A MISG        N/A
$$

ALZ005>007-016-311100-
NORTH CENTRAL ALABAMA

CITY           SKY/WX    TMP DP  RH WIND       PRES   REMARKS
CULLMAN AG STN   N/A     68 N/A N/A N5          N/A
DECATUR AP     CLEAR     62  62 100 CALM      30.04S
HUNTSVILLE AP  CLEAR     72  61  68 N7        30.03S
HUN NWS/UAH      N/A     70  59  69 N5          N/A
MERIDIANVILLE  CLEAR     63  59  88 CALM      30.04S
REDSTONE ARSN  CLEAR     70  62  74 NE12      30.02S
VINEMONT AP    FAIR      65  61  85 N5        30.05S
$$

ALZ008>010-311100-
NORTHEAST ALABAMA

CITY           SKY/WX    TMP DP  RH WIND       PRES   REMARKS
ALBERTVILLE    CLEAR     68  64  88 N8        30.01S
FORT PAYNE     CLEAR     63  59  88 CALM      30.01S
SCOTTSBORO AP  CLEAR     66  63  88 NE5       30.02S
SCOTTSBORO HCN   N/A     64 N/A N/A MISG        N/A
VALLEY HEAD      N/A     63 N/A N/A MISG        N/A
$$

TNZ076-096-097-311100-
SOUTHEASTERN MIDDLE TENNESSEE

CITY           SKY/WX    TMP DP  RH WIND       PRES   REMARKS
TULLAHOMA      CLEAR     66  57  72 CALM      30.08S
WINCHESTER     CLEAR     61  61 100 CALM      30.07R
$$

...SURROUNDING SITES...

CITY           SKY/WX    TMP DP  RH WIND       PRES   REMARKS
ATLANTA        CLEAR     73  66  78 N7        29.95S
ANNISTON       CLEAR     74  64  71 NE6       29.98R
BIRMINGHAM     CLEAR     69  64  84 N6        30.01S
CHATTANOOGA    CLEAR     73  59  61 N10       30.02S
DALTON         CLEAR     70  63  78 N14       29.99S
GADSDEN        CLEAR     70  57  64 N6        29.98S
GOLDEN TRNGL   CLEAR     70  61  73 N6        30.00S
HALEYVILLE     FAIR      67  62  84 N6        30.07R
JACKSON TN     PTCLDY    66  62  87 N3        30.08S
MEMPHIS        PTCLDY    74  63  68 N5        30.08R
NASHVILLE      CLEAR     69  62  78 CALM      30.08R
ROME           CLEAR     74  61  63 N8        29.97S
SAVANNAH       CLEAR     63  32  31 CALM      30.07S
TUPELO         CLEAR     67  62  84 NE8       30.04S
TUSCALOOSA     CLEAR     73  63  70 N7        29.98R
$$

...GULF COAST WEATHER...

CITY           SKY/WX    TMP DP  RH WIND       PRES   REMARKS
GULFPORT       MOCLDY    77  72  84 N8        29.91R
PASCAGOULA     CLOUDY    75  74  96 N6        29.90R
MOBILE         CLOUDY    76  74  93 N10       29.92R
GULF SHORES    CLOUDY    76  73  91 CALM      29.89R
PENSACOLA      CLOUDY    77  73  87 N3        29.88R
DESTIN         PTCLDY    81  78  91 N5        29.87S
PANAMA CITY    PTCLDY    78  77  97 SE2       29.89R
APPALACHICOLA  MOCLDY    80  76  87 CALM      29.89R
$$



USA.gov is the U.S. government's official web portal to all federal, state and local government web resources and services.